This demonstration page uses our WeatherBlox Daily Observations layout. Learn more.

Left ArrowRight Arrow

44.89941, -97.11507

Hourly Observations for November 10, 2020

Temp ( °F °C ) Dew Point ( °F °C ) Humidity (%) Winds ( mph kmh ) Pressure ( in mb ) Visibility ( mi km ) Precip ( " mm )
12:53 am 00:53 Clear 23 -5 18 -7.8 81 81 NE 5 7 30.00 1016 10 16 0.00 0.00
1:53 am 01:53 Clear 23 -5 19 -7.2 85 85 WNW 5 7 30.00 1016 10 16 0.00 0.00
2:53 am 02:53 Clear 24 -4.4 19 -7.2 81 81 N 5 7 30.00 1016 10 16 0.00 0.00
3:53 am 03:53 Clear 22 -5.6 18 -7.8 85 85 Calm 30.00 1016 10 16 0.00 0.00
4:53 am 04:53 Clear 21 -6.1 17 -8.3 85 85 NNW 5 7 30.00 1016 10 16 0.00 0.00
5:53 am 05:53 Clear 18 -7.8 15 -9.4 88 88 N 7 11 29.94 1014 10 16 0.00 0.00
6:53 am 06:53 Clear 18 -7.8 15 -9.4 88 88 NNE 6 9 29.95 1014 10 16 0.00 0.00
7:53 am 07:53 Cloudy 22 -5.6 18 -7.8 85 85 N 6 9 29.92 1013 10 16 0.00 0.00
8:53 am 08:53 Cloudy 23 -5 19 -7.2 85 85 N 9 15 29.91 1013 10 16 0.00 0.00
9:53 am 09:53 Cloudy 23 -5 19 -7.2 85 85 N 8 13 29.94 1014 10 16 0.00 0.00
10:53 am 10:53 Cloudy 24 -4.4 19 -7.2 81 81 N 12 19 29.90 1013 10 16 0.00 0.00
11:53 am 11:53 Cloudy 24 -4.4 20 -6.7 84 84 NNW 7 11 29.87 1012 10 16 0.00 0.00
12:53 pm 12:53 Cloudy 25 -3.9 21 -6.1 85 85 NNW 5 7 29.84 1011 10 16 0.00 0.00
1:03 pm 13:03 Cloudy with Light Snow 25 -3.9 21 -6.1 85 85 N 7 11 29.87 1011 3 4 0.00 0.00
1:06 pm 13:06 Cloudy with Light Snow 25 -3.9 22 -5.6 88 88 N 7 11 29.86 1011 1 2 0.00 0.00
1:18 pm 13:18 Cloudy with Light Snow 25 -3.9 22 -5.6 88 88 N 10 17 29.85 1011 2 3 0.00 0.00
1:27 pm 13:27 Cloudy with Light Snow 25 -3.9 22 -5.6 88 88 NNW 10 17 29.84 1010 6 10 0.00 0.00
1:42 pm 13:42 Cloudy with Light Snow 25 -3.9 21 -6.1 85 85 NNW 12 19 29.83 1010 2 3 0.00 0.00
1:53 pm 13:53 Cloudy with Light Snow 25 -3.9 21 -6.1 85 85 NNW 13 20 29.78 1008 1 2 0.00 0.00
2:05 pm 14:05 Cloudy with Light Snow 25 -3.9 21 -6.1 85 85 NNW 12 19 29.81 1009 2 3 0.00 0.00
2:14 pm 14:14 Cloudy 25 -3.9 21 -6.1 85 85 NNW 10 17 29.80 1009 7 11 0.00 0.00
2:53 pm 14:53 Cloudy 25 -3.9 20 -6.7 81 81 NNW 13 20 29.75 1008 10 16 0.00 0.00
3:53 pm 15:53 Cloudy 25 -3.9 17 -8.3 72 72 WNW 10 17 29.79 1009 10 16 0.00 0.00
4:53 pm 16:53 Cloudy 25 -3.9 19 -7.2 78 78 W 8 13 29.84 1010 10 16 0.00 0.00
5:53 pm 17:53 Cloudy 24 -4.4 20 -6.7 84 84 W 8 13 29.84 1011 10 16 0.00 0.00
6:53 pm 18:53 Cloudy 25 -3.9 20 -6.7 81 81 W 14 22 29.84 1011 10 16 0.00 0.00
7:53 pm 19:53 Clear 24 -4.4 21 -6.1 88 88 WSW 9 15 29.84 1011 10 16 0.00 0.00
8:53 pm 20:53 Clear 22 -5.6 20 -6.7 92 92 WSW 8 13 29.85 1011 10 16 0.00 0.00
9:53 pm 21:53 Clear 23 -5 20 -6.7 88 88 SW 7 11 29.85 1011 10 16 0.00 0.00
10:53 pm 22:53 Clear 23 -5 21 -6.1 92 92 SSW 9 15 29.85 1011 10 16 0.00 0.00
11:53 pm 23:53 Clear 21 -6.1 19 -7.2 92 92 SSW 7 11 29.85 1011 10 16 0.00 0.00

Powered by AerisWeather